Year,Month,Day,Hour,Minute,Value (Times are PST for temperature in C)
2007,09,16,00,00,14.00
2007,09,16,00,01,14.00
2007,09,16,00,02,14.00
2007,09,16,00,03,13.90
2007,09,16,00,04,13.90
2007,09,16,00,05,13.90
2007,09,16,00,06,13.80
2007,09,16,00,07,13.80
2007,09,16,00,08,13.70
2007,09,16,00,09,13.70
2007,09,16,00,10,13.70
2007,09,16,00,11,13.60
2007,09,16,00,12,13.60
2007,09,16,00,13,13.50
2007,09,16,00,14,13.50
2007,09,16,00,15,13.40
2007,09,16,00,16,13.40
2007,09,16,10,02,11.80
2007,09,16,10,03,11.80
2007,09,16,10,04,11.80
2007,09,16,10,05,11.80
2007,09,16,10,06,11.80
2007,09,16,10,09,11.80
2007,09,16,10,10,11.80
2007,09,16,10,11,11.80
2007,09,16,10,19,11.70
2007,09,16,10,20,11.70
2007,09,16,10,21,11.70
2007,09,16,10,22,11.80
2007,09,16,10,23,11.80
2007,09,16,10,24,11.80
2007,09,16,10,25,11.80
2007,09,16,10,26,11.80
2007,09,16,10,27,11.80
2007,09,16,10,29,11.80
2007,09,16,10,30,11.80
2007,09,16,10,31,11.80
2007,09,16,10,32,11.80
2007,09,16,10,33,11.80
2007,09,16,10,34,11.80
2007,09,16,10,35,11.80
2007,09,16,10,36,11.80
2007,09,16,10,37,11.80
2007,09,16,10,38,11.80
2007,09,16,10,39,11.80
2007,09,16,10,40,11.80
2007,09,16,10,41,11.80
2007,09,16,10,42,11.80
2007,09,16,10,43,11.80
2007,09,16,10,44,11.90
2007,09,16,10,45,11.90
2007,09,16,10,46,11.90
2007,09,16,10,47,11.90
2007,09,16,10,48,11.90
2007,09,16,10,49,11.90
2007,09,16,10,50,12.00
2007,09,16,10,51,12.00
2007,09,16,11,01,12.20
2007,09,16,11,02,12.20
2007,09,16,11,03,12.20
2007,09,16,11,04,12.20
2007,09,16,11,05,12.20
2007,09,16,11,06,12.20
2007,09,16,11,07,12.20
2007,09,16,11,08,12.30
2007,09,16,11,09,12.30
2007,09,16,11,10,12.30
2007,09,16,11,11,12.30
2007,09,16,11,12,12.30
2007,09,16,11,13,12.30
2007,09,16,11,14,12.30
2007,09,16,11,15,12.30
2007,09,16,11,16,12.30
2007,09,16,11,17,12.30
2007,09,16,11,18,12.40
2007,09,16,11,19,12.40
2007,09,16,11,20,12.40
2007,09,16,11,21,12.40
2007,09,16,11,22,12.40
2007,09,16,11,23,12.40
2007,09,16,11,24,12.50
2007,09,16,11,25,12.50
2007,09,16,11,26,12.50
2007,09,16,11,27,12.50
2007,09,16,11,28,12.50
2007,09,16,11,29,12.60
2007,09,16,11,30,12.60
2007,09,16,11,31,12.60
2007,09,16,11,32,12.60
2007,09,16,11,33,12.60
2007,09,16,11,34,12.60
2007,09,16,11,35,12.70
2007,09,16,11,36,12.70
2007,09,16,11,37,12.70
2007,09,16,11,38,12.70
2007,09,16,11,39,12.70
2007,09,16,11,40,12.70
2007,09,16,11,41,12.70
2007,09,16,11,42,12.70
2007,09,16,11,43,12.80
2007,09,16,11,44,12.80
2007,09,16,11,45,12.80
2007,09,16,11,46,12.80
2007,09,16,11,47,12.80
2007,09,16,11,48,12.80
2007,09,16,11,49,12.80
2007,09,16,11,50,12.80
2007,09,16,11,51,12.80
2007,09,16,11,52,12.80
2007,09,16,11,53,12.80
2007,09,16,11,54,12.80
2007,09,16,11,55,12.80
2007,09,16,11,56,12.90
2007,09,16,11,57,12.90
2007,09,16,11,58,12.90
2007,09,16,11,59,12.90
2007,09,16,12,00,12.90
2007,09,16,12,01,12.90
2007,09,16,12,02,12.90
2007,09,16,12,03,12.90
2007,09,16,12,04,12.90
2007,09,16,12,05,12.90
2007,09,16,12,06,12.90
2007,09,16,12,07,12.90
2007,09,16,12,08,12.90
2007,09,16,12,09,12.90
2007,09,16,12,10,12.90
2007,09,16,12,11,12.80
2007,09,16,12,12,12.80
2007,09,16,12,13,12.80
2007,09,16,12,14,12.80
2007,09,16,12,15,12.90
2007,09,16,12,16,12.90
2007,09,16,12,17,12.90
2007,09,16,12,18,12.90
2007,09,16,12,19,12.90
2007,09,16,12,20,12.80
2007,09,16,12,21,12.90
2007,09,16,12,22,12.90
2007,09,16,12,23,12.90
2007,09,16,12,24,12.90
2007,09,16,12,25,12.90
2007,09,16,12,26,12.90
2007,09,16,12,27,12.90
2007,09,16,12,28,12.90
2007,09,16,12,29,12.90
2007,09,16,12,30,12.90
2007,09,16,12,31,13.00
2007,09,16,12,32,13.00
2007,09,16,12,33,13.10
2007,09,16,12,34,13.10
2007,09,16,12,35,13.10
2007,09,16,12,36,13.10
2007,09,16,12,37,13.10
2007,09,16,12,38,13.10
2007,09,16,12,39,13.10
2007,09,16,12,40,13.10
2007,09,16,12,41,13.10
2007,09,16,12,42,13.10
2007,09,16,12,43,13.10
2007,09,16,12,44,13.10
2007,09,16,12,45,13.10
2007,09,16,12,46,13.10
2007,09,16,12,47,13.10
2007,09,16,12,48,13.10
2007,09,16,12,49,13.10
2007,09,16,12,50,13.10
2007,09,16,12,51,13.20
2007,09,16,12,52,13.20
2007,09,16,12,53,13.20
2007,09,16,12,54,13.20
2007,09,16,12,55,13.30
2007,09,16,12,56,13.30
2007,09,16,12,57,13.20
2007,09,16,12,58,13.20
2007,09,16,12,59,13.10
2007,09,16,13,00,13.00
2007,09,16,13,01,12.90
2007,09,16,13,02,12.90
2007,09,16,13,03,12.80
2007,09,16,13,04,12.80
2007,09,16,13,05,12.80
2007,09,16,13,06,12.80
2007,09,16,13,07,12.80
2007,09,16,13,08,12.80
2007,09,16,13,09,12.80
2007,09,16,13,10,12.70
2007,09,16,13,11,12.60
2007,09,16,13,12,12.60
2007,09,16,13,13,12.50
2007,09,16,13,14,12.50
2007,09,16,13,15,12.50
2007,09,16,13,16,12.50
2007,09,16,13,17,12.50
2007,09,16,13,18,12.50
2007,09,16,13,19,12.50
2007,09,16,13,20,12.50
2007,09,16,13,21,12.50
2007,09,16,13,22,12.40
2007,09,16,13,23,12.40
2007,09,16,13,24,12.40
2007,09,16,13,25,12.40
2007,09,16,13,26,12.40
2007,09,16,13,27,12.40
2007,09,16,13,28,12.40
2007,09,16,13,29,12.40
2007,09,16,13,30,12.40
2007,09,16,13,31,12.40
2007,09,16,13,32,12.40
2007,09,16,13,33,12.40
2007,09,16,13,34,12.50
2007,09,16,13,35,12.50
2007,09,16,13,36,12.50
2007,09,16,13,37,12.50
2007,09,16,13,38,12.50
2007,09,16,13,39,12.40
2007,09,16,13,40,12.50
2007,09,16,13,41,12.50
2007,09,16,13,42,12.40
2007,09,16,13,43,12.40
2007,09,16,13,44,12.40
2007,09,16,13,45,12.40
2007,09,16,13,46,12.30
2007,09,16,13,47,12.30
2007,09,16,13,48,12.30
2007,09,16,13,49,12.30
2007,09,16,13,50,12.30
2007,09,16,13,51,12.20
2007,09,16,13,52,12.20
2007,09,16,13,53,12.20
2007,09,16,13,54,12.20
2007,09,16,13,55,12.10
2007,09,16,13,56,12.20
2007,09,16,13,57,12.20
2007,09,16,13,58,12.20
2007,09,16,13,59,12.10
2007,09,16,14,00,12.10
2007,09,16,14,01,12.10
2007,09,16,14,02,12.10
2007,09,16,14,03,12.20
2007,09,16,14,04,12.30
2007,09,16,14,05,12.30
2007,09,16,14,06,12.30
2007,09,16,14,07,12.30
2007,09,16,14,08,12.30
2007,09,16,14,09,12.30
2007,09,16,14,10,12.30
2007,09,16,14,11,12.30
2007,09,16,14,12,12.30
2007,09,16,14,13,12.30
2007,09,16,14,14,12.30
2007,09,16,14,15,12.30
2007,09,16,14,16,12.30
2007,09,16,14,17,12.30
2007,09,16,14,18,12.30
2007,09,16,14,19,12.30
2007,09,16,14,20,12.40
2007,09,16,14,21,12.30
2007,09,16,14,22,12.30
2007,09,16,14,23,12.30
2007,09,16,14,24,12.30
2007,09,16,14,25,12.30
2007,09,16,14,26,12.30
2007,09,16,14,27,12.30
2007,09,16,14,28,12.30
2007,09,16,14,29,12.30
2007,09,16,14,30,12.30
2007,09,16,14,31,12.30
2007,09,16,14,32,12.30
2007,09,16,14,33,12.30
2007,09,16,14,34,12.30
2007,09,16,14,35,12.40
2007,09,16,14,36,12.40
2007,09,16,14,37,12.40
2007,09,16,14,38,12.40
2007,09,16,14,39,12.40
2007,09,16,14,40,12.40
2007,09,16,14,41,12.40
2007,09,16,14,42,12.40
2007,09,16,14,43,12.40
2007,09,16,14,44,12.50
2007,09,16,14,45,12.50
2007,09,16,14,46,12.60
2007,09,16,14,47,12.60
2007,09,16,14,48,12.50
2007,09,16,14,49,12.50
2007,09,16,14,50,12.30
2007,09,16,14,51,12.30
2007,09,16,14,52,12.20
2007,09,16,14,53,12.20
2007,09,16,14,54,12.20
2007,09,16,14,55,12.10
2007,09,16,14,56,12.10
2007,09,16,14,57,12.00
2007,09,16,14,58,12.00
2007,09,16,14,59,11.90
2007,09,16,15,00,11.80
2007,09,16,15,01,11.80
2007,09,16,15,02,11.80
2007,09,16,15,03,11.80
2007,09,16,15,04,11.80
2007,09,16,15,06,11.80
2007,09,16,15,07,11.80
2007,09,16,15,08,11.80
2007,09,16,15,09,11.80
2007,09,16,15,10,11.80
2007,09,16,15,11,11.90
2007,09,16,15,12,11.90
2007,09,16,15,13,11.90
2007,09,16,15,14,11.90
2007,09,16,15,15,11.90
2007,09,16,15,16,11.80
2007,09,16,15,17,11.90
2007,09,16,15,18,11.90
2007,09,16,15,19,11.90
2007,09,16,15,20,11.90
2007,09,16,15,21,11.80
2007,09,16,15,22,11.80
2007,09,16,15,23,11.80
2007,09,16,15,24,11.80
2007,09,16,15,25,11.80
2007,09,16,15,26,11.80
2007,09,16,15,27,11.80
2007,09,16,15,28,11.80
2007,09,16,15,29,11.80
2007,09,16,15,30,11.80
2007,09,16,15,31,11.80
2007,09,16,15,32,11.80
2007,09,16,15,33,11.80
2007,09,16,15,34,11.80
2007,09,16,15,35,11.80
2007,09,16,15,36,11.80
2007,09,16,15,37,11.80
2007,09,16,15,38,11.70
2007,09,16,15,39,11.70
2007,09,16,15,40,11.60
2007,09,16,15,41,11.60
2007,09,16,15,42,11.60
2007,09,16,15,43,11.60
2007,09,16,15,44,11.60
2007,09,16,15,45,11.60
2007,09,16,15,46,11.60
2007,09,16,15,47,11.60
2007,09,16,15,48,11.60
2007,09,16,15,49,11.70
2007,09,16,15,50,11.60
2007,09,16,15,51,11.60
2007,09,16,15,52,11.60
2007,09,16,15,53,11.60
2007,09,16,15,54,11.60
2007,09,16,15,55,11.60
2007,09,16,15,56,11.60
2007,09,16,15,57,11.60
2007,09,16,15,58,11.60
2007,09,16,15,59,11.70
2007,09,16,16,00,11.70
2007,09,16,16,01,11.70
2007,09,16,16,02,11.70
2007,09,16,16,03,11.70
2007,09,16,16,04,11.60
2007,09,16,16,05,11.60
2007,09,16,16,06,11.60
2007,09,16,16,07,11.60
2007,09,16,16,08,11.60
2007,09,16,16,09,11.60
2007,09,16,16,10,11.50
2007,09,16,16,11,11.50
2007,09,16,16,12,11.60
2007,09,16,16,13,11.60
2007,09,16,16,14,11.60
2007,09,16,16,15,11.50
2007,09,16,16,16,11.40
2007,09,16,16,17,11.50
2007,09,16,16,18,11.60
2007,09,16,16,19,11.60
2007,09,16,16,20,11.60
2007,09,16,16,21,11.60
2007,09,16,16,22,11.60
2007,09,16,16,23,11.60
2007,09,16,16,24,11.60
2007,09,16,16,25,11.60
2007,09,16,16,26,11.60
2007,09,16,16,27,11.60
2007,09,16,16,28,11.60
2007,09,16,16,29,11.60
2007,09,16,16,30,11.60
2007,09,16,16,31,11.60
2007,09,16,16,32,11.60
2007,09,16,16,33,11.60
2007,09,16,16,34,11.60
2007,09,16,16,35,11.60
2007,09,16,16,36,11.60
2007,09,16,16,37,11.60
2007,09,16,16,38,11.50
2007,09,16,16,39,11.40
2007,09,16,16,40,11.50
2007,09,16,16,41,11.60
2007,09,16,16,42,11.60
2007,09,16,16,43,11.60
2007,09,16,16,44,11.60
2007,09,16,16,45,11.60
2007,09,16,16,46,11.60
2007,09,16,16,47,11.60
2007,09,16,16,48,11.60
2007,09,16,16,49,11.60
2007,09,16,16,50,11.60
2007,09,16,16,51,11.60
2007,09,16,16,52,11.60
2007,09,16,16,53,11.60
2007,09,16,16,54,11.60
2007,09,16,16,55,11.60
2007,09,16,16,56,11.60
2007,09,16,16,57,11.60
2007,09,16,16,58,11.60
2007,09,16,16,59,11.60
2007,09,16,17,00,11.60
2007,09,16,17,01,11.50
2007,09,16,17,02,11.40
2007,09,16,17,03,11.40
2007,09,16,17,04,11.40
2007,09,16,17,05,11.40
2007,09,16,17,06,11.40
2007,09,16,17,07,11.40
2007,09,16,17,08,11.50
2007,09,16,17,09,11.60
2007,09,16,17,10,11.60
2007,09,16,17,11,11.60
2007,09,16,17,12,11.60
2007,09,16,17,13,11.60
2007,09,16,17,14,11.60
2007,09,16,17,15,11.60
2007,09,16,17,16,11.70
2007,09,16,17,17,11.60
2007,09,16,17,18,11.70
2007,09,16,17,19,11.70
2007,09,16,17,20,11.70
2007,09,16,17,21,11.70
2007,09,16,17,22,11.60
2007,09,16,17,23,11.60
2007,09,16,17,24,11.60
2007,09,16,17,25,11.60
2007,09,16,17,26,11.50
2007,09,16,17,27,11.40
2007,09,16,17,28,11.50
2007,09,16,17,29,11.60
2007,09,16,17,30,11.60
2007,09,16,17,31,11.40
2007,09,16,17,32,11.40
2007,09,16,17,33,11.40
2007,09,16,17,34,11.40
2007,09,16,17,35,11.40
2007,09,16,17,36,11.40
2007,09,16,17,37,11.40
2007,09,16,17,38,11.40
2007,09,16,17,39,11.40
2007,09,16,17,40,11.40
2007,09,16,17,41,11.40
2007,09,16,17,42,11.40
2007,09,16,17,43,11.40
2007,09,16,17,44,11.40
2007,09,16,17,45,11.40
2007,09,16,17,46,11.40
2007,09,16,17,47,11.40
2007,09,16,17,48,11.50
2007,09,16,17,49,11.60
2007,09,16,17,50,11.60
2007,09,16,17,51,11.60
2007,09,16,17,52,11.60
2007,09,16,17,53,11.60
2007,09,16,17,54,11.60
2007,09,16,17,55,11.60
2007,09,16,17,56,11.60
2007,09,16,17,57,11.60
2007,09,16,17,58,11.60
2007,09,16,17,59,11.60
2007,09,16,18,00,11.60
2007,09,16,18,01,11.60
2007,09,16,18,02,11.60
2007,09,16,18,03,11.60
2007,09,16,18,04,11.60
2007,09,16,18,05,11.60
2007,09,16,18,06,11.70
2007,09,16,18,07,11.70
2007,09,16,18,08,11.70
2007,09,16,18,09,11.70
2007,09,16,18,10,11.70
2007,09,16,18,11,11.70
2007,09,16,18,12,11.70
2007,09,16,18,13,11.70
2007,09,16,18,14,11.70
2007,09,16,18,15,11.70
2007,09,16,18,16,11.70
2007,09,16,18,17,11.70
2007,09,16,18,18,11.70
2007,09,16,18,19,11.70
2007,09,16,18,20,11.70
2007,09,16,18,21,11.70
2007,09,16,18,22,11.70
2007,09,16,18,23,11.70
2007,09,16,18,24,11.70
2007,09,16,18,25,11.70
2007,09,16,18,26,11.70
2007,09,16,18,27,11.70
2007,09,16,18,28,11.60
2007,09,16,18,29,11.60
2007,09,16,18,30,11.60
2007,09,16,18,31,11.60
2007,09,16,18,32,11.60
2007,09,16,18,33,11.60
2007,09,16,18,34,11.60
2007,09,16,18,35,11.60
2007,09,16,18,36,11.60
2007,09,16,18,37,11.60
2007,09,16,18,38,11.60
2007,09,16,18,39,11.60
2007,09,16,18,40,11.60
2007,09,16,18,41,11.60
2007,09,16,18,42,11.60
2007,09,16,18,43,11.60
2007,09,16,18,44,11.60
2007,09,16,18,45,11.60
2007,09,16,18,55,11.60
2007,09,16,18,56,11.60
2007,09,16,18,57,11.60
2007,09,16,18,58,11.60
2007,09,16,18,59,11.60
2007,09,16,19,00,11.60
2007,09,16,19,01,11.60
2007,09,16,19,02,11.60
2007,09,16,19,03,11.60
2007,09,16,19,04,11.60
2007,09,16,19,05,11.60
2007,09,16,19,06,11.60
2007,09,16,19,07,11.60
2007,09,16,19,08,11.60
2007,09,16,19,09,11.60
2007,09,16,19,10,11.60
2007,09,16,19,11,11.60
2007,09,16,19,12,11.60
2007,09,16,19,13,11.60
2007,09,16,19,14,11.60
2007,09,16,19,15,11.60
2007,09,16,19,16,11.60
2007,09,16,19,17,11.60
2007,09,16,19,18,11.60
2007,09,16,19,19,11.60
2007,09,16,19,20,11.60
2007,09,16,19,21,11.70
2007,09,16,19,22,11.70
2007,09,16,19,23,11.70
2007,09,16,19,24,11.70
2007,09,16,19,25,11.70
2007,09,16,19,26,11.70
2007,09,16,19,27,11.70
2007,09,16,19,28,11.70
2007,09,16,19,29,11.70
2007,09,16,19,30,11.70
2007,09,16,19,31,11.70
2007,09,16,19,32,11.70
2007,09,16,19,33,11.70
2007,09,16,19,34,11.70
2007,09,16,19,35,11.80
2007,09,16,19,36,11.80
2007,09,16,19,37,11.80
2007,09,16,19,38,11.80
2007,09,16,19,39,11.80
2007,09,16,19,40,11.80
2007,09,16,19,41,11.80
2007,09,16,19,42,11.80
2007,09,16,19,43,11.80
2007,09,16,19,44,11.80
2007,09,16,19,45,11.80
2007,09,16,19,46,11.80
2007,09,16,19,47,11.80
2007,09,16,19,48,11.80
2007,09,16,19,49,11.80
2007,09,16,19,50,11.80
2007,09,16,19,51,11.80
2007,09,16,19,52,11.80
2007,09,16,19,53,11.80
2007,09,16,19,54,11.80
2007,09,16,19,55,11.80
2007,09,16,19,56,11.80
2007,09,16,19,57,11.80
2007,09,16,19,58,11.80
2007,09,16,19,59,11.80
2007,09,16,20,00,11.80
2007,09,16,20,01,11.80
2007,09,16,20,02,11.80
2007,09,16,20,03,11.80
2007,09,16,20,04,11.80
2007,09,16,20,05,11.80
2007,09,16,20,06,11.80
2007,09,16,20,07,11.80
2007,09,16,20,08,11.80
2007,09,16,20,09,11.80
2007,09,16,20,10,11.80
2007,09,16,20,11,11.80
2007,09,16,20,12,11.80
2007,09,16,20,13,11.80
2007,09,16,20,14,11.80
2007,09,16,20,15,11.80
2007,09,16,20,16,11.80
2007,09,16,20,17,11.80
2007,09,16,20,18,11.80
2007,09,16,20,19,11.80
2007,09,16,20,20,11.80
2007,09,16,20,21,11.80
2007,09,16,20,22,11.80
2007,09,16,20,23,11.80
2007,09,16,20,24,11.80
2007,09,16,20,25,11.80
2007,09,16,20,26,11.80
2007,09,16,20,27,11.80
2007,09,16,20,28,11.80
2007,09,16,20,29,11.80
2007,09,16,20,30,11.80
2007,09,16,20,31,11.80
2007,09,16,20,32,11.80
2007,09,16,20,33,11.80
2007,09,16,20,34,11.80
2007,09,16,20,35,11.90
2007,09,16,20,36,11.90
2007,09,16,20,37,11.90
2007,09,16,20,38,11.90
2007,09,16,20,39,11.90
2007,09,16,20,40,11.90
2007,09,16,20,41,11.90
2007,09,16,20,42,11.90
2007,09,16,20,43,11.90
2007,09,16,20,44,11.90
2007,09,16,20,45,11.90
2007,09,16,20,46,11.90
2007,09,16,20,47,11.90
2007,09,16,20,48,11.90
2007,09,16,20,49,11.90
2007,09,16,20,50,11.90
2007,09,16,20,51,11.90
2007,09,16,20,52,11.90
2007,09,16,20,53,11.90
2007,09,16,20,54,11.90
2007,09,16,20,55,11.90
2007,09,16,20,56,11.90
2007,09,16,20,57,11.90
2007,09,16,20,58,11.90
2007,09,16,20,59,11.90
2007,09,16,21,00,11.90
2007,09,16,21,01,11.90
2007,09,16,21,02,11.90
2007,09,16,21,03,11.90
2007,09,16,21,04,11.90
2007,09,16,21,05,11.90
2007,09,16,21,06,11.90
2007,09,16,21,07,11.90
2007,09,16,21,08,11.90
2007,09,16,21,09,11.90
2007,09,16,21,10,11.90
2007,09,16,21,11,11.90
2007,09,16,21,12,11.90
2007,09,16,21,13,11.90
2007,09,16,21,14,11.90
2007,09,16,21,15,11.90
2007,09,16,21,16,11.90
2007,09,16,21,17,11.90
2007,09,16,21,18,11.90
2007,09,16,21,19,11.90
2007,09,16,21,20,11.90
2007,09,16,21,21,11.90
2007,09,16,21,22,11.90
2007,09,16,21,23,11.90
2007,09,16,21,24,11.90
2007,09,16,21,25,11.90
2007,09,16,21,26,11.90
2007,09,16,21,27,11.90
2007,09,16,21,28,11.90
2007,09,16,21,29,11.90
2007,09,16,21,30,11.90
2007,09,16,21,31,11.90
2007,09,16,21,32,11.90
2007,09,16,21,33,11.90
2007,09,16,21,34,11.90
2007,09,16,21,35,11.90
2007,09,16,21,36,11.90
2007,09,16,21,37,11.90
2007,09,16,21,38,11.90
2007,09,16,21,39,11.90
2007,09,16,21,40,11.90
2007,09,16,21,41,11.90
2007,09,16,21,42,11.90
2007,09,16,21,43,11.90
2007,09,16,21,44,11.90
2007,09,16,21,45,11.90
2007,09,16,21,46,11.90
2007,09,16,21,47,11.90
2007,09,16,21,48,11.90
2007,09,16,21,49,11.90
2007,09,16,21,50,11.90
2007,09,16,21,51,11.90
2007,09,16,21,52,12.00
2007,09,16,21,53,12.00
2007,09,16,21,54,12.00
2007,09,16,21,55,12.00
2007,09,16,21,56,12.00
2007,09,16,21,57,12.00
2007,09,16,21,58,12.00
2007,09,16,21,59,12.00
2007,09,16,22,00,12.00
2007,09,16,22,01,12.00
2007,09,16,22,02,12.00
2007,09,16,22,03,12.00
2007,09,16,22,04,12.00
2007,09,16,22,05,12.00
2007,09,16,22,06,12.00
2007,09,16,22,07,12.10
2007,09,16,22,08,12.10
2007,09,16,22,09,12.10
2007,09,16,22,10,12.10
2007,09,16,22,11,12.10
2007,09,16,22,12,12.10
2007,09,16,22,13,12.10
2007,09,16,22,14,12.10
2007,09,16,22,15,12.10
2007,09,16,22,16,12.10
2007,09,16,22,17,12.10
2007,09,16,22,18,12.10
2007,09,16,22,19,12.10
2007,09,16,22,20,12.10
2007,09,16,22,21,12.10
2007,09,16,22,22,12.10
2007,09,16,22,23,12.10
2007,09,16,22,24,12.10
2007,09,16,22,25,12.10
2007,09,16,22,26,12.10
2007,09,16,22,27,12.10
2007,09,16,22,28,12.10
2007,09,16,22,29,12.20
2007,09,16,22,30,12.20
2007,09,16,22,31,12.20
2007,09,16,22,32,12.20
2007,09,16,22,33,12.20
2007,09,16,22,34,12.20
2007,09,16,22,35,12.20
2007,09,16,22,36,12.20
2007,09,16,22,37,12.20
2007,09,16,22,38,12.20
2007,09,16,22,39,12.20
2007,09,16,22,40,12.20
2007,09,16,22,41,12.20
2007,09,16,22,42,12.20
2007,09,16,22,43,12.20
2007,09,16,22,44,12.20
2007,09,16,22,45,12.20
2007,09,16,22,46,12.20
2007,09,16,22,47,12.20
2007,09,16,22,48,12.20
2007,09,16,22,49,12.20
2007,09,16,22,50,12.20
2007,09,16,22,51,12.20
2007,09,16,22,52,12.20
2007,09,16,22,53,12.20
2007,09,16,22,54,12.20
2007,09,16,22,55,12.20
2007,09,16,22,56,12.20
2007,09,16,22,57,12.20
2007,09,16,22,58,12.20
2007,09,16,22,59,12.20
2007,09,16,23,00,12.20
2007,09,16,23,01,12.20
2007,09,16,23,02,12.20
2007,09,16,23,03,12.20
2007,09,16,23,04,12.20
2007,09,16,23,05,12.20
2007,09,16,23,06,12.30
2007,09,16,23,07,12.30
2007,09,16,23,08,12.30
2007,09,16,23,09,12.30
2007,09,16,23,10,12.30
2007,09,16,23,11,12.30
2007,09,16,23,12,12.30
2007,09,16,23,13,12.30
2007,09,16,23,14,12.30
2007,09,16,23,15,12.30
2007,09,16,23,16,12.30
2007,09,16,23,17,12.30
2007,09,16,23,18,12.30
2007,09,16,23,19,12.30
2007,09,16,23,20,12.30
2007,09,16,23,21,12.30
2007,09,16,23,22,12.30
2007,09,16,23,23,12.30
2007,09,16,23,24,12.30
2007,09,16,23,25,12.30
2007,09,16,23,26,12.30
2007,09,16,23,27,12.30
2007,09,16,23,28,12.30
2007,09,16,23,29,12.30
2007,09,16,23,30,12.30
2007,09,16,23,31,12.30
2007,09,16,23,32,12.30
2007,09,16,23,33,12.30
2007,09,16,23,34,12.30
2007,09,16,23,35,12.20
2007,09,16,23,36,12.20
2007,09,16,23,37,12.20
2007,09,16,23,38,12.20
2007,09,16,23,39,12.20
2007,09,16,23,40,12.20
2007,09,16,23,41,12.20
2007,09,16,23,42,12.20
2007,09,16,23,43,12.20
2007,09,16,23,44,12.20
2007,09,16,23,45,12.20
2007,09,16,23,46,12.20
2007,09,16,23,47,12.20
2007,09,16,23,48,12.20
2007,09,16,23,49,12.20
2007,09,16,23,50,12.20
2007,09,16,23,51,12.20
2007,09,16,23,52,12.20
2007,09,16,23,53,12.20
2007,09,16,23,54,12.20
2007,09,16,23,55,12.20
2007,09,16,23,56,12.20
2007,09,16,23,57,12.20
2007,09,16,23,58,12.20
2007,09,16,23,59,12.20
